TimeCST,TemperatureF,Dew PointF,Humidity,Sea Level PressureIn,VisibilityMPH,Wind Direction,Wind SpeedMPH,Gust SpeedMPH,PrecipitationIn,Events,Conditions,WindDirDegrees,DateUTC
12:15 AM,32.0,27.7,84,30.45,10.0,Calm,Calm,-,N/A,,Clear,0,2013-01-18 06:15:00
12:35 AM,32.0,27.9,85,30.45,10.0,Calm,Calm,-,N/A,,Clear,0,2013-01-18 06:35:00
12:55 AM,31.6,27.3,84,30.45,10.0,Calm,Calm,-,N/A,,Clear,0,2013-01-18 06:55:00
1:15 AM,30.2,26.6,86,30.44,10.0,Calm,Calm,-,N/A,,Clear,0,2013-01-18 07:15:00
1:35 AM,31.6,27.5,85,30.44,10.0,Calm,Calm,-,N/A,,Clear,0,2013-01-18 07:35:00
1:55 AM,30.6,26.1,83,30.44,10.0,Calm,Calm,-,N/A,,Clear,0,2013-01-18 07:55:00
2:15 AM,30.0,26.4,86,30.43,10.0,Calm,Calm,-,N/A,,Clear,0,2013-01-18 08:15:00
2:35 AM,29.1,25.7,87,30.43,10.0,Calm,Calm,-,N/A,,Clear,0,2013-01-18 08:35:00
2:55 AM,29.1,25.7,87,30.42,10.0,Calm,Calm,-,N/A,,Clear,0,2013-01-18 08:55:00
3:15 AM,28.6,25.7,89,30.42,10.0,Calm,Calm,-,N/A,,Clear,0,2013-01-18 09:15:00
3:35 AM,29.7,26.6,88,30.40,10.0,Calm,Calm,-,N/A,,Clear,0,2013-01-18 09:35:00
3:55 AM,28.0,24.8,88,30.40,10.0,Calm,Calm,-,N/A,,Clear,0,2013-01-18 09:55:00
4:15 AM,27.1,24.8,91,30.40,10.0,WNW,3.5,-,N/A,,Clear,290,2013-01-18 10:15:00
4:35 AM,27.0,25.0,92,30.40,10.0,WNW,4.6,-,N/A,,Clear,300,2013-01-18 10:35:00
4:55 AM,27.1,25.2,92,30.40,10.0,NNW,3.5,-,N/A,,Clear,340,2013-01-18 10:55:00
5:15 AM,26.8,24.6,92,30.39,10.0,Calm,Calm,-,N/A,,Clear,0,2013-01-18 11:15:00
5:35 AM,26.4,24.4,92,30.39,10.0,Calm,Calm,-,N/A,,Clear,0,2013-01-18 11:35:00
5:55 AM,26.4,24.4,92,30.39,10.0,Calm,Calm,-,N/A,,Clear,0,2013-01-18 11:55:00
6:15 AM,26.4,23.9,90,30.38,10.0,NNE,4.6,-,N/A,,Clear,30,2013-01-18 12:15:00
6:35 AM,26.6,24.4,92,30.38,10.0,Calm,Calm,-,N/A,,Clear,0,2013-01-18 12:35:00
6:55 AM,26.4,23.9,90,30.38,10.0,West,3.5,-,N/A,,Clear,270,2013-01-18 12:55:00
7:15 AM,25.3,23.0,91,30.38,10.0,Calm,Calm,-,N/A,,Clear,0,2013-01-18 13:15:00
7:35 AM,25.2,23.0,91,30.38,10.0,NNW,4.6,-,N/A,,Clear,330,2013-01-18 13:35:00
7:55 AM,26.4,24.3,92,30.38,10.0,NNW,3.5,-,N/A,,Clear,330,2013-01-18 13:55:00
8:15 AM,26.2,24.1,92,30.39,10.0,WNW,3.5,-,N/A,,Clear,290,2013-01-18 14:15:00
8:35 AM,26.8,24.8,92,30.39,10.0,Calm,Calm,-,N/A,,Clear,0,2013-01-18 14:35:00
8:55 AM,28.8,26.6,92,30.40,10.0,West,3.5,-,N/A,,Clear,280,2013-01-18 14:55:00
9:35 AM,33.1,29.8,88,30.40,10.0,NW,5.8,-,N/A,,Clear,310,2013-01-18 15:35:00
10:15 AM,36.5,30.4,78,30.41,10.0,NNW,3.5,-,N/A,,Clear,340,2013-01-18 16:15:00
10:35 AM,37.6,30.4,75,30.42,10.0,Calm,Calm,-,N/A,,Clear,0,2013-01-18 16:35:00
10:55 AM,39.2,30.7,72,30.41,10.0,Calm,Calm,-,N/A,,Clear,0,2013-01-18 16:55:00
11:15 AM,40.6,30.9,68,30.40,10.0,Calm,Calm,-,N/A,,Clear,0,2013-01-18 17:15:00
11:35 AM,42.4,31.1,64,30.39,10.0,Calm,Calm,-,N/A,,Clear,0,2013-01-18 17:35:00
12:35 PM,47.5,32.2,55,30.34,10.0,Calm,Calm,-,N/A,,Clear,0,2013-01-18 18:35:00
12:55 PM,49.8,32.2,51,30.32,10.0,Calm,Calm,-,N/A,,Clear,0,2013-01-18 18:55:00
1:15 PM,51.6,32.9,49,30.31,10.0,SE,3.5,-,N/A,,Clear,130,2013-01-18 19:15:00
1:35 PM,52.7,32.5,46,30.29,10.0,ESE,3.5,-,N/A,,Clear,110,2013-01-18 19:35:00
2:15 PM,55.0,33.1,43,30.26,10.0,Calm,Calm,-,N/A,,Clear,0,2013-01-18 20:15:00
2:35 PM,55.8,32.7,42,30.25,10.0,Calm,Calm,-,N/A,,Clear,0,2013-01-18 20:35:00
3:15 PM,59.2,31.6,35,30.24,10.0,Calm,Calm,-,N/A,,Clear,0,2013-01-18 21:15:00
3:35 PM,60.6,31.8,34,30.23,10.0,East,3.5,-,N/A,,Clear,80,2013-01-18 21:35:00
3:55 PM,61.2,32.0,33,30.22,10.0,ESE,5.8,-,N/A,,Clear,120,2013-01-18 21:55:00
4:35 PM,60.1,32.2,35,30.21,10.0,ESE,5.8,-,N/A,,Clear,120,2013-01-18 22:35:00
4:55 PM,60.8,31.3,33,30.21,10.0,SE,5.8,-,N/A,,Clear,140,2013-01-18 22:55:00
5:15 PM,59.7,31.1,34,30.21,10.0,SE,4.6,-,N/A,,Clear,130,2013-01-18 23:15:00
5:35 PM,57.4,32.2,39,30.20,10.0,ESE,5.8,-,N/A,,Clear,120,2013-01-18 23:35:00
5:55 PM,55.6,33.4,43,30.20,10.0,SE,6.9,-,N/A,,Clear,140,2013-01-18 23:55:00
6:35 PM,53.2,34.5,49,30.20,10.0,ESE,4.6,-,N/A,,Clear,120,2013-01-19 00:35:00
6:55 PM,52.0,34.2,51,30.21,10.0,ESE,4.6,-,N/A,,Clear,110,2013-01-19 00:55:00
7:15 PM,52.0,33.8,50,30.21,10.0,Calm,Calm,-,N/A,,Clear,0,2013-01-19 01:15:00
7:55 PM,46.2,33.1,60,30.21,10.0,Calm,Calm,-,N/A,,Clear,0,2013-01-19 01:55:00
8:35 PM,44.4,32.2,62,30.21,10.0,North,4.6,-,N/A,,Clear,350,2013-01-19 02:35:00
8:55 PM,45.0,32.7,62,30.21,10.0,NE,4.6,-,N/A,,Clear,40,2013-01-19 02:55:00
9:15 PM,44.2,32.2,63,30.20,10.0,ENE,3.5,-,N/A,,Clear,60,2013-01-19 03:15:00
9:35 PM,42.4,32.0,67,30.20,10.0,Calm,Calm,-,N/A,,Clear,0,2013-01-19 03:35:00
9:55 PM,40.3,32.0,72,30.20,10.0,Calm,Calm,-,N/A,,Clear,0,2013-01-19 03:55:00
10:15 PM,37.8,30.9,76,30.20,10.0,Calm,Calm,-,N/A,,Clear,0,2013-01-19 04:15:00
10:35 PM,36.9,30.7,79,30.20,10.0,Calm,Calm,-,N/A,,Clear,0,2013-01-19 04:35:00
10:55 PM,37.6,30.4,75,30.20,10.0,Calm,Calm,-,N/A,,Clear,0,2013-01-19 04:55:00
11:15 PM,37.2,30.9,78,30.19,10.0,North,3.5,-,N/A,,Clear,350,2013-01-19 05:15:00
11:35 PM,36.0,30.0,79,30.19,10.0,Calm,Calm,-,N/A,,Clear,0,2013-01-19 05:35:00
11:55 PM,34.0,29.3,83,30.19,10.0,Calm,Calm,-,N/A,,Clear,0,2013-01-19 05:55:00